Location: Arthurs Seat
(13.1500°N, 59.6000°W)
Time: 00:24:09
(UTC+00:00)

Hubble Space Telescope - Visible Passes

Search period start: 17 November 2019 00:00
Search period end: 27 November 2019 00:00
Orbit: 536 x 540 km, 28.5° (Epoch: 16 November)

Date Brightness Start Highest point End Pass type
(mag) Time Alt. Az. Time Alt. Az. Time Alt. Az.
17 Nov 3.1 23:12:49 10° NW 23:14:35 15° NNW 23:14:35 15° NNW visible
18 Nov 3.2 23:02:52 10° NW 23:04:39 13° NNW 23:04:39 13° NNW visible
19 Nov 3.2 22:53:01 10° NNW 22:54:25 11° N 22:54:41 11° N visible
20 Nov 3.2 22:43:24 10° NNW 22:44:01 10° N 22:44:38 10° N visible
26 Nov 3.4 23:20:15 10° NW 23:20:43 12° NNW 23:20:43 12° NNW visible
